P/2020 V4 ( Rankin )

Japanese version
Home page
Updated on May 29, 2022

---------------------------------------------------------------------

* Profile

Discovery Date November 15, 2020
Magnitude 19.2 mag
Discoverer David Rankin (Mount Lemmon Survey)

* Pictures

* Orbital Elements

Epoch 2022 Jan. 21.0 TT = JDT 2459600.5
T 2021 July 17.79115 TT                                 Rudenko
q   5.1485418            (2000.0)            P               Q
n   0.03446993     Peri.  256.99198     -0.17010295     -0.98053188
a   9.3506640      Node   203.49685     +0.97230627     -0.15081507
e   0.4493929      Incl.   14.24287     +0.16026701     -0.12574593
P  28.6
From 524 observations 2019 Sept. 22-2022 Feb. 2, mean residual 0".5.

* Magnitudes Graph

        m1 = -16.0 + 5 log d + 42.5 log r(t - 80)

---------------------------------------------------------------------

The orbital elements are published on M.P.E.C. 2022-C56.
The magnitudes graphs are made with Comet for Windows.

---------------------------------------------------------------------

Copyright(C) Seiichi Yoshida (comet@aerith.net). All rights reserved.